Content
SEND FEEDBACK

Daily
Averages
Monthly
Summary
Germany

BERLIN, GERMANY


Home > Europe > Germany
Elevation: 157 feet     Latitude: 52 23N     Longitude: 013 31E

WEATHER
 
SELECT A DAY
Number of Records: 262,474;   Date Range: 7/3/96 - 12/16/14
 
SHARE

PRINT THIS DATA

[ ← Previous Day ]
WEATHER ALMANAC - FEBRUARY 8, 2013
[ Next Day → ]
[ °C ]   °F
Weather ElementAverageHighLow
Temperature30.3 °F32 °F (10:50 am)26.6 °F (9:50 pm)
Dewpoint28.7 °F30.2 °F (3:20 am)26.6 °F (7:50 am)
Humidity94 %100 % (3:20 am)87 % (12:50 pm)
Barometer29.83 in29.92 in (9:50 pm)29.77 in (12:50 am)
Wind Speed6.1 mph10.4 mph (12:50 pm)
Weather ElementAverage
Visibility3.4 mi
Wind DirectionWSW (252.6 °)

Weather ElementTotal
Precipitation---
Heating Degree Days35.7 (Base 65)
Averaged from 47 records on February 8, 2013
WEATHER CONDITIONS BREAKOUT
WIND DIRECTION BREAKOUT
WEATHER BY HOUR - FEBRUARY 8, 2013
[ °C ]   °F
Local TimeTemperatureDewpointHumidityBarometerVisibilityWind DirectionWind SpeedGust SpeedPrecipitationEventsConditions
12:50 AM30.2 °F28.4 °F93 %29.77 in6.2 miWSW (240°)6.9 mphSnowLight Snow
1:20 AM30.2 °F28.4 °F93 %29.77 in5.6 miWSW (250°)6.9 mphSnowLight Snow
1:50 AM30.2 °F28.4 °F93 %29.77 in2.2 miWSW (250°)8.1 mphSnowSnow
2:20 AM30.2 °F28.4 °F93 %29.77 in2.8 miWSW (250°)6.9 mphSnowSnow
2:50 AM30.2 °F28.4 °F93 %29.77 in2.8 miWSW (240°)6.9 mphSnowSnow
3:20 AM30.2 °F30.2 °F100 %29.77 in1.6 miWSW (250°)5.8 mphSnowSnow
3:50 AM30.2 °F30.2 °F100 %29.77 in2.2 miWest (260°)6.9 mphSnowSnow
4:20 AM30.2 °F28.4 °F93 %29.77 in3.1 miWest (280°)6.9 mphSnowLight Snow
4:50 AM30.2 °F28.4 °F93 %29.77 inWest (260°)5.8 mphSnowLight Snow
5:20 AM30.2 °F30.2 °F100 %29.77 in1.6 miWest (260°)5.8 mphSnowSnow
5:50 AM30.2 °F28.4 °F93 %29.77 in1.7 miWest (270°)5.8 mphSnowSnow
6:20 AM30.2 °F28.4 °F93 %29.80 inWest (260°)4.6 mphSnowSnow
6:50 AM30.2 °F28.4 °F93 %29.80 in2.8 miWest (260°)4.6 mphSnowLight Snow
7:20 AM30.2 °F28.4 °F93 %29.80 in3.1 miWest (260°)4.6 mphSnowLight Snow
7:50 AM28.4 °F26.6 °F93 %29.80 in3.1 miWest (260°)5.8 mphSnowLight Snow
8:20 AM28.4 °F28.4 °F100 %29.80 in5.0 miWest (270°)4.6 mphSnowLight Snow
8:50 AM30.2 °F28.4 °F93 %29.80 in2.8 miWSW (250°)4.6 mphSnowLight Snow
9:20 AM30.2 °F30.2 °F100 %29.80 in1.7 miWSW (250°)5.8 mphSnowSnow
9:50 AM30.2 °F30.2 °F100 %29.83 in1.6 miWSW (250°)5.8 mphSnowSnow
10:20 AM30.2 °F30.2 °F100 %29.83 in1.9 miWSW (250°)5.8 mphSnowLight Snow
10:50 AM32.0 °F30.2 °F93 %29.83 in1.6 miWSW (250°)4.6 mphSnowLight Snow
11:20 AM32.0 °F30.2 °F93 %29.83 in2.2 miWSW (250°)5.8 mphSnowLight Snow
11:50 AM32.0 °F30.2 °F93 %29.83 in1.6 miWSW (250°)6.9 mphSnowLight Snow
12:20 PM30.2 °F30.2 °F100 %29.83 inWest (270°)9.2 mphSnowLight Snow
12:50 PM32.0 °F28.4 °F87 %29.83 in3.1 miWest (280°)10.4 mphSnowLight Snow
1:20 PM32.0 °F28.4 °F87 %29.83 in5.0 miWest (270°)8.1 mphMostly Cloudy
1:50 PM32.0 °F28.4 °F87 %29.83 in5.6 miWest (260°)9.2 mphMostly Cloudy
2:20 PM32.0 °F28.4 °F87 %29.83 in6.2 miWSW (250°)8.1 mphMostly Cloudy
2:50 PM32.0 °F30.2 °F93 %29.83 in6.2 miWest (260°)6.9 mphMostly Cloudy
3:20 PM32.0 °F30.2 °F93 %29.83 in6.2 miWest (260°)4.6 mphMostly Cloudy
3:50 PM32.0 °F28.4 °F87 %29.83 in6.2 miWSW (250°)4.6 mphMostly Cloudy
4:20 PM32.0 °F28.4 °F87 %29.86 in6.2 miWest (260°)6.9 mphMostly Cloudy
4:50 PM32.0 °F28.4 °F87 %29.86 in6.2 miWest (270°)6.9 mphSnowLight Snow
5:20 PM30.2 °F28.4 °F93 %29.86 in6.2 miWSW (250°)4.6 mphMostly Cloudy
5:50 PM30.2 °F28.4 °F93 %29.86 in6.2 miWSW (240°)5.8 mphMostly Cloudy
6:20 PM30.2 °F28.4 °F93 %29.89 in5.6 miWSW (240°)4.6 mphSnowLight Snow
6:50 PM30.2 °F28.4 °F93 %29.89 in0.9 miWSW (250°)6.9 mphSnowSnow
7:20 PM30.2 °F28.4 °F93 %29.89 in1.9 miSW (230°)5.8 mphSnowSnow
7:50 PM30.2 °F28.4 °F93 %29.89 in2.8 miSW (230°)5.8 mphSnowLight Snow
8:20 PM30.2 °F28.4 °F93 %29.89 in2.8 miSW (230°)5.8 mphSnowLight Snow
8:50 PM30.2 °F28.4 °F93 %29.89 in3.7 miWSW (240°)5.8 mphSnowLight Snow
9:20 PM28.4 °F26.6 °F93 %29.89 in1.0 miSW (230°)5.8 mphFogPatches of Fog
9:50 PM26.6 °F26.6 °F100 %29.92 in0.5 miSW (220°)3.5 mphFogLight Freezing Fog
10:20 PM28.4 °F28.4 °F100 %29.92 in1.9 miSW (220°)4.6 mphFogPatches of Fog
10:50 PM28.4 °F28.4 °F100 %29.92 in2.5 miWSW (250°)5.8 mphSnowLight Snow
11:20 PM28.4 °F28.4 °F100 %29.92 in2.8 miWest (260°)4.6 mphSnowLight Snow
11:50 PM28.4 °F28.4 °F100 %29.92 inWest (280°)4.6 mphMostly Cloudy
Hourly data recorded from EDDB, located miles away from Berlin, Germany







STORIES FROM OUR PARTNERS